HULIANWANG DIGUI-163

导读 | 豆包AI

HULIANWANG DIGUI-163(NORAD编号68137)是一颗被北美防空司令部编入空间目标目录的人造航天器。作为互联网星座体系中的一颗卫星,它运行于近地轨道,主要为全球范围提供互联网星座相关的通信服务。 该卫星被纳入NORAD的空间监测体系,接受常态化轨道跟踪与监测,是当前近地轨道互联网卫星组网中的组成单元,助力扩展全球网络覆盖的范围与容量,推动低轨卫星互联网基础设施建设。

基本信息
目录编号:
68137
目录名称:
HULIANWANG DIGUI-163
国际标识:
2026-047J
轨道中心:
EARTH
卫星名称:
HULIANWANG DIGUI-163
卫星全名:
HULIANWANG DIGUI-163
卫星状态:
在轨 (已飞行34 天)
发射日期:
2026-03-12 UTC
国别 :
中国 (CN)
星等 :
--
轨道信息
数据来源 国际轨道数据
星历时间: 2026-04-15T00:15:54+0800
14小时前
查看轨道信息
半长轴: 7386.026km
偏心率: 0.0000513
轨道倾角: 50.007°
近地点辐角 247.078°
升交点赤经 286.498°
平近点角 113.006°
近地点: 1007.51km
远地点: 1008.268km
周期: 105.287分钟
每日圈数: 13.676866
详细信息
使用方式:
暂无
2D轨道图
3D轨道图
轨道高度分析图
轨道倾角分析图
轨道综合分析图
查看轨道综合分析图